User: anonymous   Login
Location: Prairie State College
(41.5244°N, 87.6382°W)
Time: 20:42:41
(UTC-06:00)
Language:

Cosmos 1140 Rocket - Orbit

View from above orbital plane
View from above orbital plane
View from above satellite
View from above satellite

Ground track
Ground track

The orbit data is extracted from the following two-line orbital elements,

1 11574U 79089B   14350.93499208  .00000279  00000-0  96121-4 0  9113
2 11574 074.0712 104.4849 0016884 244.8550 254.4192 14.40353669845652
Epoch (UTC): 16 December 2014 22:26:23
Eccentricity: 0.0016884
inclination: 74.0712°
perigee height: 745 km
apogee height: 769 km
right ascension of ascending node: 104.4849°
argument of perigee: 244.8550°
revolutions per day: 14.40353669
mean anomaly at epoch: 254.4192°
orbit number at epoch: 84565

The dashed part of the orbit path shows where the satellite is in the earth's shadow,  

DLR